Regional Weather Roundup
Issued by NWS

Home | Current Version | Previous Version | Text Only | Print | Product List | Glossary On
Versions: 1 2 3 4 5 6 7 8 9 10 11 12 13 14 15 16 17 18 19 20 21 22 23 24 25 26 27 28 29 30 31 32 33 34 35 36 37 38 39 40 41 42 43 44 45 46 47 48 49 50
000
ASUS45 KABQ 250610
RWRNM
NEW MEXICO REGIONAL WEATHER ROUNDUP
NATIONAL WEATHER SERVICE ALBUQUERQUE NM
1200 AM MDT SUN SEP 25 2016

NOTE: "FAIR" MEANS FEW OR NO CLOUDS BELOW 12,000 FEET AGL WITH NO
       SIGNIFICANT WEATHER OR OBSTRUCTIONS TO VISION.

      THIS PRODUCT IS RELEASED AS TWO VERSIONS.  ONE VERSION NEAR
      THE TOP OF THE HOUR CONTAINING PRELIMINARY DATA FROM ALBUQUERQUE
      AND OTHER STATIONS.  A FINAL VERSION WITH ADDITIONAL DATA IS
      ISSUED ABOUT 10 MINUTES AFTER THE HOUR.

NMZ501-503-504-510>518-250700-
NORTHWEST PLATEAU/NORTHCENTRAL MOUNTAINS

CITY           SKY/WX    TMP DP  RH WIND       PRES   REMARKS
FARMINGTON     FAIR      51  34  52 CALM      30.24R
6HR MIN TEMP:  50; 6HR MAX TEMP:  62;

LOS ALAMOS     FAIR      50  32  49 N12G17    30.29R
SANTA FE       FAIR      52  31  44 N17       30.23R
6HR MIN TEMP:  51; 6HR MAX TEMP:  64;

TAOS           FAIR      45  27  49 N9        30.31R
ANGEL FIRE     FAIR      32  29  89 CALM      30.37R

$$
NMZ402-403-502-505>509-250700-
WESTCENTRAL MOUNTAINS/SOUTHWEST MOUNTAINS

CITY           SKY/WX    TMP DP  RH WIND       PRES   REMARKS
GALLUP         FAIR      45  30  55 E3        30.29S
6HR MIN TEMP:  45; 6HR MAX TEMP:  63;

SILVER CITY    CLOUDY    59  29  31 NW9       30.13S

$$
NMZ407-409-411-412-250700-
SOUTHERN DESERTS

CITY           SKY/WX    TMP DP  RH WIND       PRES   REMARKS
DEMING         FAIR      62  33  33 W8        30.07S
6HR MIN TEMP:  62; 6HR MAX TEMP:  79;

LAS CRUCES     FAIR      57  32  38 NW5       30.07S
HOLLOMAN AFB   FAIR      68  38  33 SE3       30.03S
ALAMOGORDO     FAIR      64  36  34 NE5       30.05F
T OR C         FAIR      64  30  27 NE15      30.12R
6HR MIN TEMP:  64; 6HR MAX TEMP:  76;


$$
NMZ519>523-250700-
CENTRAL VALLEYS/CENTRAL HIGHLANDS

CITY           SKY/WX    TMP DP  RH WIND       PRES   REMARKS
ALBUQUERQUE    FAIR      59  34  39 N8        30.19R
6HR MIN TEMP:  59; 6HR MAX TEMP:  69;

DOUBLE EAGLE   FAIR      52  34  50 NW13      30.22R
MORIARTY ARPT  FAIR      42  32  69 CALM      30.24R
6HR MIN TEMP:  42; 6HR MAX TEMP:  65;

CLINES CORNERS FAIR      42  33  70 NW10      30.25R
6HR MIN TEMP:  42; 6HR MAX TEMP:  60;

BELEN          NOT AVBL
SOCORRO        FAIR      57  31  36 N6        30.18R
6HR MIN TEMP:  57; 6HR MAX TEMP:  76;


$$
NMZ524>526-539-540-250700-
SOUTHCENTRAL MOUNTAINS

CITY           SKY/WX    TMP DP  RH WIND       PRES   REMARKS
RUIDOSO        FAIR      54  25  32 NW8       30.23S

$$
NMZ527>531-250700-
NORTHEAST HIGHLANDS/NORTHEAST PLAINS

CITY           SKY/WX    TMP DP  RH WIND       PRES   REMARKS
LAS VEGAS      FAIR      45  31  58 N10       30.25R
6HR MIN TEMP:  43; 6HR MAX TEMP:  67;

RATON          FAIR      56  26  31 N25G36    30.24R
6HR MIN TEMP:  50; 6HR MAX TEMP:  69;

CLAYTON        FAIR      55  41  59 N14       30.17R
6HR MIN TEMP:  53; 6HR MAX TEMP:  75;


$$
NMZ532>537-250700-
EASTCENTRAL PLAINS

CITY           SKY/WX    TMP DP  RH WIND       PRES   REMARKS
TUCUMCARI      FAIR      58  30  34 W8        30.04F
6HR MIN TEMP:  53; 6HR MAX TEMP:  79;

CANNON AFB     FAIR      61  33  34 N9        30.06F
6HR MIN TEMP:  59; 6HR MAX TEMP:  78;

CLOVIS AIRPORT FAIR      59  32  36 NW3       30.06S

$$
NMZ028-029-538-250700-
SOUTHEAST PLAINS

CITY           SKY/WX    TMP DP  RH WIND       PRES   REMARKS
ROSWELL        FAIR      65  31  28 NW13      30.02S
6HR MIN TEMP:  61; 6HR MAX TEMP:  83;

ARTESIA        FAIR      63  43  48 NW13      30.03R
CARLSBAD       FAIR      63  47  55 N5        29.99R
6HR MIN TEMP:  63; 6HR MAX TEMP:  83;

HOBBS          FAIR      64  57  77 S5        30.03F


$$




USA.gov is the U.S. government's official web portal to all federal, state and local government web resources and services.